[[{"header":{"parameterUnit":"m.s-1","parameterCategory":1,"la1":30.2991,"la2":30.254,"lo1":-89.0895,"lo2":-89.0444,"dy":0.0017,"dx":0.0017,"nx":28,"ny":28,"refTime":"2024-02-17T03:00:00:Z","depth":0,"parameterNumber":2,"parameterNumberName":"U-component_of_WINDS"},"data":[0,0,0,0,0,0,0,0,0,0,0,0,0,0,0,0,0,0,0,0,0,0,0,0,0,0,0,0,0,0,0,0,0,0,0,0,0,0,0,0,0,0,0,0,0,0,0,0,0,0,0,0,0,0,0,0,0,0,-0.1144,-0.1145,0,-0.1191,-0.1191,-0.1192,-0.1201,-0.1201,-0.12,-0.12,-0.1251,-0.1253,-0.1254,0,0,0,0,0,0,0,0,0,0,0,0,0,-0.1065,-0.1066,-0.1144,-0.1145,-0.1145,-0.1191,-0.1191,-0.1192,-0.1201,-0.1201,-0.12,-0.12,-0.1251,-0.1253,-0.1255,0,0,0,0,0,0,0,0,0,0,0,0,0,-0.1104,-0.1067,-0.1144,-0.1155,-0.1157,-0.1191,-0.1191,-0.1192,-0.1201,-0.1201,-0.12,-0.12,-0.125,-0.1252,-0.1255,-0.1282,0,0,-0.1263,-0.1264,0,0,0,0,0,0,0,0,-0.1102,-0.1107,-0.1153,-0.1155,-0.1156,-0.1189,-0.1182,-0.1222,-0.1201,-0.1184,-0.12,-0.1199,-0.1231,-0.1235,-0.1245,-0.1284,-0.1286,-0.1263,-0.1264,-0.1266,-0.1266,0,0,0,0,0,0,0,-0.1099,-0.1105,-0.1163,-0.1154,-0.1156,-0.1159,-0.1164,-0.119,-0.1211,-0.1186,-0.1187,-0.1192,-0.1232,-0.1243,-0.1247,-0.1287,-0.1263,-0.1265,-0.1267,-0.1268,-0.1349,-0.135,0,0,0,0,0,0,-0.1094,-0.1103,-0.1161,-0.1164,-0.1127,-0.116,-0.1166,-0.1179,-0.121,-0.1214,-0.1192,-0.1192,-0.1239,-0.1244,-0.1249,-0.1282,-0.1266,-0.1268,-0.1269,-0.1348,-0.1349,-0.135,0,0,0,0,0,0,-0.1093,-0.1099,-0.1159,-0.1134,-0.1142,-0.1162,-0.1177,-0.1181,-0.1192,-0.1215,-0.1219,-0.1199,-0.1239,-0.1245,-0.1273,-0.1283,-0.1269,-0.1271,-0.1348,-0.1349,-0.135,-0.1348,0,0,0,0,0,0,-0.109,-0.1099,-0.1109,-0.1134,-0.1143,-0.1183,-0.1178,-0.1182,-0.1196,-0.1196,-0.1223,-0.1227,-0.1239,-0.1269,-0.1275,-0.1287,-0.1273,-0.1347,-0.1348,-0.1349,-0.1347,-0.1349,-0.135,0,0,0,0,0,-0.1087,-0.1108,-0.1109,-0.1116,-0.1156,-0.1183,-0.1189,-0.1201,-0.1196,-0.1207,-0.1222,-0.1226,-0.1281,-0.1272,-0.1279,-0.1291,-0.1346,-0.1348,-0.1349,-0.1347,-0.1349,-0.135,0,0,0,0,0,0,-0.1085,-0.1111,-0.1114,-0.1142,-0.116,-0.1185,-0.1199,-0.1202,-0.1223,-0.1223,-0.1238,-0.1244,-0.1271,-0.1284,-0.1273,-0.1318,-0.1313,-0.1316,-0.1309,-0.1311,-0.1312,-0.1309,-0.1276,0,0,0,0,0,-0.1088,-0.1107,-0.1129,-0.1152,-0.1161,-0.1178,-0.1191,-0.1198,-0.1218,-0.1226,-0.1243,-0.1262,-0.1284,-0.1298,-0.1319,-0.1349,-0.1355,-0.136,-0.1362,-0.1363,-0.1366,-0.1381,-0.1384,-0.1355,-0.1355,-0.1355,0,0,-0.1094,-0.1111,-0.1122,-0.1152,-0.1167,-0.1187,-0.1185,-0.1206,-0.1221,-0.1229,-0.1257,-0.1269,-0.1292,-0.1321,-0.1334,-0.1333,-0.1375,-0.1365,-0.1365,-0.1368,-0.1383,-0.1386,-0.1388,-0.1355,-0.1355,-0.1355,0,0,-0.1116,-0.113,-0.1151,-0.1165,-0.1186,-0.1197,-0.1202,-0.1225,-0.1234,-0.1261,-0.1267,-0.1285,-0.1322,-0.1338,-0.1351,-0.1375,-0.138,-0.1382,-0.139,-0.1404,-0.1407,-0.1409,-0.1418,-0.142,-0.1384,-0.1384,-0.1384,0,-0.1122,-0.1151,-0.1161,-0.1182,-0.1195,-0.1201,-0.1222,-0.1235,-0.1263,-0.1272,-0.1269,-0.1315,-0.1331,-0.1362,-0.1368,-0.1378,-0.1384,-0.1379,-0.1405,-0.1408,-0.141,-0.1418,-0.1421,-0.1384,-0.1384,-0.1384,-0.1384,0,-0.1156,-0.1176,-0.1191,-0.1215,-0.123,-0.1251,-0.1264,-0.1277,-0.1283,-0.1294,-0.1321,-0.134,-0.1364,-0.1372,-0.1379,-0.1404,-0.1402,-0.1402,-0.1398,-0.1413,-0.1421,-0.1424,-0.1384,-0.1384,-0.1384,-0.1384,0,0,-0.118,-0.1208,-0.1214,-0.1224,-0.1247,-0.1264,-0.1284,-0.1306,-0.1318,-0.1336,-0.1354,-0.1383,-0.1383,-0.1397,-0.1405,-0.1418,-0.1436,-0.1416,-0.1417,-0.1419,-0.1465,-0.1465,-0.1468,-0.1438,-0.1439,-0.1439,-0.1463,0,-0.1205,-0.1241,-0.125,-0.1281,-0.1299,-0.1304,-0.1322,-0.1338,-0.1348,-0.1366,-0.1377,-0.1398,-0.1396,-0.1404,-0.1417,-0.1431,-0.1445,-0.1429,-0.1455,-0.1456,-0.145,-0.1473,-0.1474,-0.1495,-0.1466,-0.1466,-0.1467,0,-0.1239,-0.1256,-0.1288,-0.1307,-0.1316,-0.1331,-0.1352,-0.1368,-0.1386,-0.1393,-0.1407,-0.1414,-0.1435,-0.1428,-0.1458,-0.1447,-0.1458,-0.1466,-0.1467,-0.1471,-0.1463,-0.1477,-0.1502,-0.1505,-0.1472,-0.1472,-0.1471,0,-0.1253,-0.1284,-0.1307,-0.1316,-0.1339,-0.135,-0.136,-0.1378,-0.139,-0.1408,-0.1416,-0.1436,-0.1448,-0.1464,-0.1475,-0.1469,-0.1504,-0.1498,-0.151,-0.151,-0.1518,-0.1518,-0.1545,-0.1524,-0.1524,-0.1524,-0.1524,0,-0.128,-0.13,-0.1314,-0.1328,-0.135,-0.1359,-0.1381,-0.1391,-0.1406,-0.1423,-0.1428,-0.1444,-0.1457,-0.1475,-0.1484,-0.1507,-0.1512,-0.1518,-0.152,-0.1518,-0.1517,-0.1526,-0.1525,-0.1525,-0.1525,-0.1525,-0.1524,0,-0.13,-0.1311,-0.1336,-0.1354,-0.1359,-0.1375,-0.1391,-0.1405,-0.1414,-0.1435,-0.144,-0.1455,-0.1476,-0.1488,-0.1514,-0.152,-0.1545,-0.1547,-0.1539,-0.154,-0.1551,-0.155,-0.1586,-0.1592,-0.1566,-0.1567,-0.1567,0,-0.1318,-0.1332,-0.1352,-0.1362,-0.1372,-0.139,-0.1401,-0.1411,-0.1423,-0.1443,-0.1455,-0.1475,-0.1492,-0.1524,-0.1538,-0.1558,-0.156,-0.1571,-0.1563,-0.156,-0.156,-0.1559,-0.1561,-0.1573,-0.1573,-0.1573,-0.1573,0,-0.1347,-0.135,-0.1367,-0.1384,-0.1398,-0.1412,-0.1427,-0.1436,-0.1448,-0.1461,-0.1481,-0.1494,-0.1519,-0.1539,-0.156,-0.1571,-0.1574,-0.1575,-0.1579,-0.1577,-0.1572,-0.1575,-0.1543,-0.1575,-0.1575,-0.1575,-0.1575,-0.1575,-0.1366,-0.1379,-0.1394,-0.1412,-0.1423,-0.1436,-0.1449,-0.1459,-0.1476,-0.1497,-0.1501,-0.1522,-0.1538,-0.1565,-0.1576,-0.1593,-0.1591,-0.1597,-0.1599,-0.16,-0.16,-0.1568,-0.1597,-0.1597,-0.1597,-0.1597,-0.1597,0,-0.1395,-0.1405,-0.1421,-0.144,-0.1453,-0.1453,-0.1469,-0.1481,-0.1499,-0.1513,-0.1528,-0.1551,-0.1569,-0.1583,-0.1603,-0.1613,-0.1615,-0.1618,-0.1618,-0.162,-0.1601,-0.1595,-0.1616,-0.1616,-0.1616,-0.1616,-0.1616,-0.1616,-0.1412,-0.1434,-0.1439,-0.1466,-0.1475,-0.1494,-0.1503,-0.1515,-0.1526,-0.155,-0.1565,-0.1574,-0.1588,-0.1607,-0.1624,-0.1628,-0.1635,-0.1637,-0.1641,-0.1623,-0.1621,-0.162,-0.1615,-0.1639,-0.1639,-0.1659,-0.1659,-0.166]},{"header":{"parameterUnit":"m.s-1","parameterCategory":1,"la1":30.2991,"la2":30.254,"lo1":-89.0895,"lo2":-89.0444,"dy":0.0017,"dx":0.0017,"nx":28,"ny":28,"refTime":"2024-02-17T03:00:00:Z","depth":0,"parameterNumber":3,"parameterNumberName":"V-component_of_WINDS"},"data":[0,0,0,0,0,0,0,0,0,0,0,0,0,0,0,0,0,0,0,0,0,0,0,0,0,0,0,0,0,0,0,0,0,0,0,0,0,0,0,0,0,0,0,0,0,0,0,0,0,0,0,0,0,0,0,0,0,0,-8.6943,-8.6943,0,-8.6968,-8.6968,-8.6969,-8.6888,-8.6886,-8.6883,-8.6881,-8.6903,-8.6906,-8.6909,0,0,0,0,0,0,0,0,0,0,0,0,0,-8.682,-8.6823,-8.6943,-8.6943,-8.6943,-8.6968,-8.6969,-8.6969,-8.6888,-8.6886,-8.6883,-8.688,-8.6902,-8.6906,-8.6909,0,0,0,0,0,0,0,0,0,0,0,0,0,-8.6863,-8.6824,-8.6943,-8.6906,-8.6903,-8.6968,-8.6969,-8.6969,-8.6889,-8.6885,-8.6882,-8.6878,-8.6901,-8.6905,-8.6909,-8.7009,0,0,-8.6923,-8.6924,0,0,0,0,0,0,0,0,-8.686,-8.6867,-8.6911,-8.6909,-8.6906,-8.6921,-8.6933,-8.6982,-8.689,-8.6894,-8.6881,-8.6877,-8.6912,-8.6915,-8.6928,-8.701,-8.7011,-8.6923,-8.6926,-8.6927,-8.6929,0,0,0,0,0,0,0,-8.6857,-8.6865,-8.6953,-8.6912,-8.6909,-8.6887,-8.6889,-8.6942,-8.6923,-8.6894,-8.6888,-8.6892,-8.691,-8.6924,-8.6928,-8.7011,-8.6923,-8.6927,-8.6929,-8.6931,-8.7177,-8.7181,0,0,0,0,0,0,-8.686,-8.6864,-8.6952,-8.6953,-8.6874,-8.6893,-8.6895,-8.692,-8.6922,-8.6919,-8.6895,-8.6888,-8.6918,-8.6923,-8.6928,-8.7044,-8.6927,-8.6931,-8.6934,-8.7173,-8.7178,-8.7182,0,0,0,0,0,0,-8.6857,-8.6868,-8.6951,-8.6907,-8.6916,-8.6899,-8.6927,-8.6922,-8.6936,-8.6924,-8.6919,-8.6914,-8.6915,-8.6922,-8.699,-8.7044,-8.6933,-8.6937,-8.7168,-8.7174,-8.718,-8.7278,0,0,0,0,0,0,-8.6854,-8.6868,-8.6907,-8.6909,-8.6919,-8.7013,-8.6931,-8.6925,-8.6945,-8.6936,-8.694,-8.6937,-8.6913,-8.6984,-8.6994,-8.7048,-8.6941,-8.7163,-8.7171,-8.7178,-8.727,-8.7287,-8.7301,0,0,0,0,0,-8.685,-8.6932,-8.6909,-8.692,-8.6967,-8.7017,-8.7022,-8.6994,-8.6949,-8.6987,-8.6979,-8.6937,-8.7037,-8.6992,-8.7002,-8.7058,-8.716,-8.7169,-8.7177,-8.7263,-8.7284,-8.7301,0,0,0,0,0,0,-8.6935,-8.6932,-8.6906,-8.6991,-8.7005,-8.7003,-8.705,-8.7017,-8.7043,-8.7033,-8.6996,-8.6998,-8.7072,-8.7072,-8.7021,-8.7155,-8.709,-8.7102,-8.7152,-8.7171,-8.7187,-8.7184,-8.6944,0,0,0,0,0,-8.6965,-8.7007,-8.7001,-8.7077,-8.7086,-8.7067,-8.7088,-8.7065,-8.7077,-8.7082,-8.7079,-8.7091,-8.7125,-8.7149,-8.7179,-8.7271,-8.727,-8.7314,-8.733,-8.7343,-8.7353,-8.74,-8.742,-8.7211,-8.7211,-8.7211,0,0,-8.7024,-8.7028,-8.7056,-8.7094,-8.7102,-8.7146,-8.7072,-8.7121,-8.7152,-8.7089,-8.7153,-8.7152,-8.7163,-8.7243,-8.7278,-8.7245,-8.741,-8.7354,-8.7365,-8.7367,-8.7411,-8.7431,-8.7449,-8.7217,-8.7216,-8.7215,0,0,-8.7155,-8.7163,-8.7226,-8.7237,-8.725,-8.7238,-8.7253,-8.7257,-8.7254,-8.7318,-8.7271,-8.7308,-8.7368,-8.7377,-8.739,-8.7527,-8.7488,-8.7538,-8.7618,-8.7665,-8.7682,-8.7696,-8.7744,-8.7761,-8.7548,-8.7548,-8.7549,0,-8.7227,-8.7292,-8.7263,-8.7316,-8.7333,-8.728,-8.7344,-8.7355,-8.7378,-8.739,-8.7354,-8.7429,-8.7432,-8.7514,-8.7547,-8.756,-8.7575,-8.7536,-8.7682,-8.7696,-8.7709,-8.7754,-8.7772,-8.7554,-8.7554,-8.7553,-8.7552,0,-8.7379,-8.7425,-8.7475,-8.75,-8.7523,-8.7581,-8.756,-8.7587,-8.7564,-8.7555,-8.762,-8.7624,-8.7654,-8.7672,-8.7649,-8.775,-8.7729,-8.7689,-8.7622,-8.7735,-8.7777,-8.7794,-8.7563,-8.756,-8.7559,-8.7557,0,0,-8.7562,-8.7572,-8.759,-8.7601,-8.7613,-8.7647,-8.7703,-8.7734,-8.7758,-8.7776,-8.782,-8.7873,-8.7836,-8.785,-8.7828,-8.7869,-8.7976,-8.7823,-8.7822,-8.785,-8.8087,-8.8116,-8.8137,-8.7952,-8.7955,-8.7957,-8.8085,0,-8.7689,-8.7786,-8.7763,-8.7857,-8.7899,-8.785,-8.7898,-8.791,-8.7904,-8.7937,-8.7929,-8.7967,-8.7915,-8.7923,-8.7963,-8.7955,-8.8023,-8.7946,-8.7991,-8.7993,-8.7988,-8.8159,-8.819,-8.831,-8.8102,-8.8104,-8.8106,0,-8.7851,-8.7877,-8.7977,-8.7982,-8.7999,-8.8043,-8.807,-8.8103,-8.8115,-8.8108,-8.8125,-8.8095,-8.8148,-8.8084,-8.8157,-8.8105,-8.8122,-8.8122,-8.8126,-8.8127,-8.8055,-8.8163,-8.8348,-8.8366,-8.8132,-8.813,-8.8128,0,-8.7973,-8.8033,-8.81,-8.8111,-8.812,-8.8152,-8.8156,-8.8166,-8.8186,-8.821,-8.8222,-8.8252,-8.8267,-8.829,-8.8268,-8.8223,-8.8344,-8.8277,-8.8337,-8.8338,-8.8363,-8.8361,-8.8552,-8.8378,-8.8378,-8.8377,-8.8377,0,-8.8117,-8.8179,-8.8155,-8.8196,-8.8264,-8.8237,-8.8305,-8.8304,-8.8313,-8.8352,-8.8312,-8.8349,-8.8319,-8.8353,-8.8336,-8.8398,-8.8406,-8.84,-8.8395,-8.8403,-8.8403,-8.8412,-8.8402,-8.8382,-8.8381,-8.838,-8.8379,0,-8.8263,-8.825,-8.832,-8.8323,-8.8326,-8.8376,-8.8378,-8.8415,-8.8407,-8.8457,-8.8467,-8.8453,-8.8492,-8.8473,-8.8513,-8.8501,-8.8581,-8.8565,-8.8577,-8.8572,-8.8633,-8.8627,-8.8834,-8.8859,-8.8671,-8.8673,-8.8674,0,-8.8355,-8.8402,-8.8412,-8.8436,-8.8444,-8.8484,-8.8505,-8.848,-8.8503,-8.8522,-8.8557,-8.8593,-8.862,-8.8684,-8.8676,-8.8706,-8.8689,-8.876,-8.8693,-8.87,-8.8689,-8.8685,-8.8689,-8.8773,-8.8775,-8.8777,-8.8778,0,-8.8519,-8.8511,-8.8544,-8.8575,-8.8602,-8.8625,-8.8644,-8.8666,-8.8641,-8.867,-8.871,-8.8731,-8.8772,-8.8808,-8.8834,-8.8838,-8.8804,-8.88,-8.8815,-8.8823,-8.8827,-8.8824,-8.8612,-8.8794,-8.8793,-8.8792,-8.8791,-8.879,-8.864,-8.868,-8.8693,-8.8731,-8.8743,-8.8763,-8.8798,-8.8795,-8.8828,-8.8861,-8.8844,-8.889,-8.8902,-8.8934,-8.8943,-8.8978,-8.8949,-8.8971,-8.8977,-8.8982,-8.8989,-8.8824,-8.8982,-8.8982,-8.8981,-8.8981,-8.8981,0,-8.88,-8.8807,-8.8843,-8.8872,-8.8902,-8.887,-8.889,-8.8916,-8.8958,-8.8973,-8.9001,-8.9046,-8.9081,-8.9077,-8.9108,-8.9137,-8.9122,-8.9146,-8.9142,-8.9143,-8.9014,-8.8997,-8.9157,-8.9157,-8.9157,-8.9157,-8.9157,-8.9157,-8.8887,-8.8953,-8.8946,-8.9017,-8.9022,-8.9068,-8.9082,-8.9099,-8.9111,-8.9164,-8.9193,-8.9191,-8.9198,-8.923,-8.926,-8.9257,-8.927,-8.9299,-8.9291,-8.917,-8.9152,-8.9136,-8.9119,-8.9303,-8.9303,-8.9417,-8.9418,-8.9419]}]]